QPF
0.03 0.01 0.01 0.00 0.00 0.00 0.00 0.00 0.00 0.00 0.00 0.00 0.00 0.01 0.01 0.02 0.03 0.04 0.03 0.02 0.03 0.04 0.04 0.05 0.07 0.12 0.14 0.13 0.11 0.09 0.07 0.08 0.10 0.12 0.11 0.11 0.11 0.11 0.16 0.16 0.07 0.03 0.04
0.01 0.01 0.01 0.00 0.00 0.00 0.00 0.00 0.00 0.00 0.00 0.01 0.01 0.02 0.02 0.02 0.02 0.03 0.04 0.03 0.03 0.04 0.04 0.04 0.06 0.09 0.11 0.11 0.09 0.09 0.08 0.09 0.11 0.11 0.11 0.10 0.09 0.09 0.10 0.15 0.12 0.06 0.05
0.01 0.01 0.00 0.00 0.00 0.00 0.00 0.00 0.00 0.00 0.00 0.01 0.01 0.01 0.01 0.02 0.02 0.02 0.02 0.02 0.03 0.03 0.03 0.02 0.03 0.05 0.06 0.06 0.06 0.06 0.07 0.09 0.10 0.11 0.09 0.06 0.05 0.07 0.06 0.08 0.11 0.08 0.08
0.01 0.00 0.00 0.00 0.00 0.00 0.00 0.00 0.00 0.00 0.01 0.01 0.01 0.01 0.01 0.01 0.01 0.02 0.02 0.03 0.03 0.03 0.03 0.02 0.02 0.03 0.04 0.04 0.04 0.04 0.05 0.07 0.09 0.09 0.08 0.08 0.06 0.09 0.09 0.07 0.08 0.08 0.08
0.01 0.00 0.00 0.00 0.00 0.00 0.00 0.00 0.00 0.00 0.00 0.01 0.01 0.01 0.01 0.02 0.02 0.02 0.03 0.03 0.04 0.04 0.03 0.02 0.02 0.03 0.03 0.04 0.03 0.04 0.04 0.07 0.07 0.06 0.09 0.11 0.10 0.10 0.10 0.07 0.07 0.07 0.07
0.00 0.00 0.00 0.00 0.00 0.00 0.00 0.00 0.00 0.00 0.00 0.01 0.01 0.01 0.02 0.05 0.06 0.04 0.03 0.03 0.04 0.04 0.04 0.03 0.03 0.02 0.02 0.03 0.04 0.05 0.05 0.05 0.04 0.04 0.08 0.10 0.09 0.08 0.09 0.07 0.07 0.06 0.04
0.00 0.00 0.00 0.01 0.00 0.00 0.00 0.01 0.00 0.00 0.00 0.01 0.01 0.01 0.02 0.05 0.06 0.03 0.02 0.03 0.04 0.04 0.04 0.04 0.04 0.03 0.02 0.03 0.04 0.05 0.04 0.04 0.03 0.04 0.13 0.13 0.11 0.09 0.07 0.06 0.06 0.06 0.04
0.00 0.00 0.01 0.01 0.01 0.01 0.01 0.01 0.01 0.00 0.00 0.01 0.01 0.01 0.01 0.01 0.01 0.01 0.02 0.03 0.04 0.06 0.06 0.05 0.04 0.04 0.03 0.03 0.04 0.04 0.04 0.05 0.03 0.04 0.14 0.11 0.08 0.09 0.07 0.06 0.07 0.07 0.06
0.01 0.00 0.00 0.01 0.02 0.02 0.01 0.01 0.01 0.01 0.01 0.01 0.01 0.02 0.01 0.01 0.01 0.02 0.02 0.04 0.05 0.07 0.07 0.07 0.06 0.05 0.04 0.04 0.04 0.03 0.05 0.04 0.03 0.04 0.11 0.13 0.06 0.06 0.07 0.08 0.10 0.08 0.05
0.01 0.00 0.00 0.04 0.03 0.02 0.02 0.02 0.02 0.02 0.01 0.01 0.02 0.02 0.02 0.02 0.02 0.02 0.02 0.06 0.07 0.07 0.07 0.07 0.07 0.07 0.08 0.06 0.05 0.06 0.07 0.05 0.02 0.03 0.04 0.11 0.06 0.06 0.08 0.08 0.09 0.06 0.04
0.02 0.02 0.01 0.01 0.01 0.01 0.01 0.02 0.03 0.02 0.02 0.01 0.03 0.03 0.02 0.02 0.02 0.01 0.02 0.03 0.05 0.06 0.06 0.06 0.06 0.07 0.08 0.07 0.07 0.07 0.05 0.02 0.02 0.01 0.01 0.02 0.03 0.07 0.08 0.09 0.07 0.04 0.03
0.03 0.04 0.03 0.02 0.01 0.01 0.01 0.02 0.02 0.03 0.03 0.02 0.03 0.03 0.03 0.03 0.03 0.02 0.02 0.03 0.04 0.05 0.08 0.09 0.09 0.09 0.06 0.05 0.05 0.05 0.04 0.02 0.01 0.01 0.02 0.03 0.04 0.05 0.07 0.08 0.06 0.04 0.03
0.04 0.05 0.04 0.02 0.02 0.02 0.03 0.03 0.02 0.03 0.05 0.03 0.03 0.04 0.04 0.04 0.04 0.04 0.03 0.03 0.03 0.03 0.07 0.12 0.15 0.15 0.09 0.06 0.04 0.03 0.03 0.02 0.02 0.02 0.02 0.03 0.04 0.04 0.05 0.05 0.04 0.03 0.02
0.04 0.06 0.06 0.05 0.03 0.03 0.04 0.04 0.04 0.03 0.05 0.04 0.03 0.04 0.05 0.07 0.07 0.06 0.04 0.03 0.03 0.02 0.02 0.03 0.07 0.19 0.13 0.08 0.05 0.03 0.02 0.02 0.04 0.03 0.02 0.03 0.03 0.03 0.04 0.04 0.04 0.05 0.04
0.05 0.08 0.09 0.08 0.05 0.04 0.05 0.05 0.05 0.03 0.03 0.04 0.04 0.04 0.05 0.06 0.06 0.06 0.04 0.03 0.03 0.03 0.02 0.03 0.03 0.07 0.11 0.12 0.08 0.05 0.02 0.03 0.03 0.02 0.02 0.03 0.03 0.02 0.03 0.03 0.03 0.06 0.07
0.03 0.06 0.10 0.10 0.06 0.04 0.04 0.05 0.05 0.05 0.04 0.04 0.05 0.06 0.07 0.07 0.09 0.09 0.07 0.06 0.04 0.03 0.02 0.03 0.03 0.05 0.08 0.13 0.11 0.04 0.03 0.06 0.02 0.02 0.02 0.03 0.03 0.02 0.02 0.03 0.03 0.04 0.05
0.03 0.05 0.10 0.14 0.10 0.06 0.05 0.04 0.06 0.08 0.09 0.08 0.07 0.08 0.14 0.22 0.21 0.18 0.15 0.09 0.06 0.04 0.04 0.05 0.04 0.04 0.06 0.12 0.10 0.04 0.03 0.03 0.03 0.03 0.03 0.02 0.02 0.02 0.02 0.03 0.03 0.03 0.03
0.03 0.04 0.07 0.12 0.10 0.08 0.07 0.07 0.07 0.08 0.10 0.10 0.07 0.06 0.09 0.25 0.27 0.19 0.16 0.13 0.09 0.06 0.06 0.06 0.05 0.06 0.06 0.10 0.07 0.05 0.03 0.03 0.03 0.03 0.03 0.03 0.03 0.02 0.02 0.02 0.02 0.03 0.03
0.02 0.02 0.03 0.07 0.07 0.08 0.08 0.08 0.07 0.07 0.07 0.07 0.07 0.05 0.05 0.11 0.14 0.12 0.14 0.16 0.12 0.09 0.07 0.06 0.05 0.05 0.04 0.05 0.05 0.06 0.05 0.03 0.02 0.02 0.03 0.04 0.03 0.02 0.02 0.02 0.02 0.02 0.02
0.02 0.02 0.02 0.03 0.04 0.06 0.09 0.08 0.08 0.08 0.07 0.07 0.07 0.06 0.08 0.12 0.10 0.09 0.09 0.12 0.12 0.10 0.08 0.06 0.04 0.04 0.03 0.04 0.04 0.04 0.03 0.02 0.02 0.03 0.03 0.03 0.03 0.03 0.03 0.02 0.01 0.01 0.01
0.02 0.01 0.01 0.01 0.02 0.03 0.03 0.04 0.06 0.07 0.07 0.07 0.09 0.10 0.10 0.14 0.09 0.06 0.05 0.06 0.06 0.07 0.06 0.05 0.05 0.04 0.02 0.03 0.03 0.02 0.02 0.03 0.03 0.03 0.04 0.04 0.03 0.03 0.04 0.04 0.03 0.02 0.02
0.02 0.02 0.01 0.02 0.02 0.03 0.03 0.03 0.05 0.07 0.09 0.07 0.08 0.08 0.09 0.11 0.07 0.04 0.03 0.03 0.04 0.04 0.03 0.03 0.03 0.02 0.01 0.02 0.02 0.02 0.02 0.03 0.03 0.04 0.04 0.04 0.04 0.04 0.04 0.04 0.04 0.03 0.03
0.03 0.03 0.06 0.06 0.04 0.03 0.04 0.04 0.05 0.07 0.11 0.09 0.06 0.06 0.09 0.12 0.07 0.03 0.02 0.03 0.03 0.02 0.02 0.02 0.02 0.02 0.01 0.02 0.02 0.02 0.01 0.02 0.03 0.05 0.05 0.05 0.05 0.04 0.03 0.03 0.03 0.03 0.03
0.04 0.05 0.09 0.15 0.13 0.10 0.09 0.06 0.04 0.06 0.07 0.07 0.06 0.07 0.11 0.12 0.07 0.03 0.02 0.02 0.02 0.02 0.02 0.02 0.02 0.02 0.02 0.02 0.02 0.02 0.02 0.02 0.02 0.03 0.04 0.05 0.04 0.04 0.03 0.04 0.05 0.04 0.03
0.07 0.10 0.10 0.10 0.13 0.14 0.14 0.10 0.06 0.06 0.08 0.08 0.07 0.09 0.12 0.11 0.09 0.06 0.03 0.01 0.01 0.02 0.02 0.02 0.02 0.03 0.01 0.02 0.02 0.02 0.02 0.03 0.02 0.02 0.03 0.04 0.04 0.03 0.04 0.05 0.07 0.06 0.05
0.09 0.12 0.11 0.09 0.07 0.08 0.10 0.11 0.09 0.08 0.08 0.08 0.05 0.05 0.06 0.07 0.08 0.07 0.03 0.01 0.01 0.01 0.01 0.02 0.02 0.02 0.01 0.02 0.02 0.02 0.02 0.02 0.01 0.01 0.01 0.02 0.03 0.04 0.04 0.03 0.05 0.05 0.04
MSLP
1009.23 1008.48 1007.94 1007.67 1007.65 1007.79 1008.01 1008.19 1008.28 1008.24 1008.08 1007.86 1007.67 1007.54 1007.52 1007.62 1007.81 1008.04 1008.28 1008.51 1008.73 1008.98 1009.28 1009.67 1010.17 1010.78 1011.44 1012.11 1012.72 1013.23 1013.61 1013.86 1014.00 1014.06 1014.09 1014.12 1014.16 1014.22 1014.29 1014.36 1014.43 1014.49 1014.55
1008.97 1008.33 1007.88 1007.67 1007.67 1007.80 1007.97 1008.11 1008.15 1008.08 1007.93 1007.75 1007.62 1007.58 1007.65 1007.83 1008.08 1008.35 1008.60 1008.83 1009.05 1009.28 1009.58 1009.97 1010.48 1011.08 1011.74 1012.40 1013.00 1013.49 1013.86 1014.09 1014.23 1014.30 1014.34 1014.37 1014.42 1014.48 1014.54 1014.60 1014.64 1014.67 1014.71
1008.51 1008.00 1007.67 1007.54 1007.59 1007.75 1007.93 1008.05 1008.08 1008.01 1007.88 1007.75 1007.67 1007.70 1007.83 1008.04 1008.31 1008.57 1008.81 1009.02 1009.22 1009.44 1009.74 1010.14 1010.66 1011.27 1011.93 1012.59 1013.17 1013.64 1013.99 1014.22 1014.36 1014.45 1014.52 1014.59 1014.66 1014.74 1014.80 1014.85 1014.88 1014.89 1014.90
1007.92 1007.56 1007.36 1007.35 1007.48 1007.69 1007.90 1008.04 1008.09 1008.04 1007.94 1007.85 1007.81 1007.87 1008.01 1008.23 1008.48 1008.71 1008.92 1009.10 1009.28 1009.50 1009.82 1010.24 1010.79 1011.42 1012.09 1012.73 1013.29 1013.74 1014.07 1014.30 1014.45 1014.56 1014.66 1014.77 1014.88 1014.98 1015.07 1015.12 1015.14 1015.13 1015.12
1007.32 1007.10 1007.04 1007.15 1007.38 1007.67 1007.92 1008.10 1008.17 1008.14 1008.07 1008.00 1007.99 1008.05 1008.19 1008.38 1008.59 1008.79 1008.96 1009.11 1009.29 1009.54 1009.89 1010.36 1010.94 1011.60 1012.27 1012.90 1013.44 1013.86 1014.16 1014.37 1014.51 1014.64 1014.77 1014.92 1015.07 1015.20 1015.31 1015.37 1015.38 1015.37 1015.35
1006.84 1006.75 1006.83 1007.05 1007.37 1007.72 1008.01 1008.21 1008.30 1008.29 1008.22 1008.17 1008.16 1008.22 1008.34 1008.50 1008.68 1008.84 1008.98 1009.14 1009.34 1009.62 1010.02 1010.54 1011.17 1011.85 1012.53 1013.14 1013.64 1014.02 1014.28 1014.46 1014.59 1014.72 1014.87 1015.04 1015.22 1015.38 1015.50 1015.57 1015.58 1015.57 1015.54
1006.59 1006.62 1006.80 1007.11 1007.50 1007.87 1008.17 1008.37 1008.44 1008.42 1008.35 1008.30 1008.29 1008.34 1008.46 1008.60 1008.76 1008.91 1009.06 1009.23 1009.46 1009.79 1010.25 1010.82 1011.48 1012.19 1012.86 1013.45 1013.91 1014.23 1014.45 1014.58 1014.69 1014.81 1014.96 1015.14 1015.33 1015.50 1015.63 1015.70 1015.72 1015.70 1015.67
1006.62 1006.74 1007.00 1007.37 1007.76 1008.13 1008.39 1008.54 1008.57 1008.51 1008.43 1008.37 1008.36 1008.42 1008.55 1008.70 1008.87 1009.03 1009.20 1009.41 1009.68 1010.06 1010.56 1011.18 1011.86 1012.57 1013.23 1013.78 1014.20 1014.48 1014.64 1014.74 1014.81 1014.91 1015.04 1015.22 1015.40 1015.57 1015.70 1015.77 1015.79 1015.78 1015.76
1006.93 1007.12 1007.43 1007.80 1008.16 1008.46 1008.65 1008.71 1008.67 1008.56 1008.45 1008.38 1008.39 1008.48 1008.64 1008.83 1009.03 1009.23 1009.44 1009.68 1009.99 1010.40 1010.92 1011.55 1012.24 1012.94 1013.57 1014.09 1014.47 1014.71 1014.84 1014.91 1014.95 1015.03 1015.15 1015.30 1015.47 1015.63 1015.75 1015.82 1015.85 1015.84 1015.83
1007.42 1007.67 1007.99 1008.33 1008.63 1008.83 1008.91 1008.87 1008.74 1008.57 1008.43 1008.37 1008.41 1008.55 1008.76 1009.01 1009.26 1009.51 1009.75 1010.02 1010.34 1010.76 1011.28 1011.89 1012.56 1013.23 1013.84 1014.34 1014.70 1014.92 1015.04 1015.09 1015.13 1015.19 1015.29 1015.43 1015.58 1015.73 1015.84 1015.91 1015.94 1015.94 1015.95
1007.97 1008.27 1008.59 1008.89 1009.10 1009.20 1009.16 1009.01 1008.80 1008.58 1008.43 1008.38 1008.47 1008.66 1008.94 1009.26 1009.57 1009.86 1010.13 1010.40 1010.72 1011.11 1011.59 1012.16 1012.79 1013.43 1014.02 1014.50 1014.87 1015.11 1015.24 1015.31 1015.36 1015.43 1015.52 1015.64 1015.78 1015.91 1016.02 1016.09 1016.12 1016.14 1016.16
1008.48 1008.81 1009.13 1009.38 1009.51 1009.51 1009.37 1009.14 1008.86 1008.62 1008.48 1008.47 1008.60 1008.86 1009.21 1009.58 1009.94 1010.26 1010.54 1010.80 1011.09 1011.43 1011.86 1012.38 1012.95 1013.56 1014.13 1014.63 1015.02 1015.31 1015.49 1015.60 1015.68 1015.76 1015.86 1015.97 1016.10 1016.23 1016.33 1016.41 1016.46 1016.49 1016.52
1008.84 1009.20 1009.52 1009.73 1009.80 1009.73 1009.53 1009.25 1008.97 1008.73 1008.62 1008.65 1008.85 1009.16 1009.56 1009.98 1010.37 1010.70 1010.98 1011.21 1011.46 1011.74 1012.11 1012.57 1013.10 1013.68 1014.25 1014.78 1015.22 1015.56 1015.81 1015.98 1016.10 1016.21 1016.32 1016.43 1016.56 1016.68 1016.79 1016.87 1016.94 1017.00 1017.04
1009.01 1009.40 1009.72 1009.90 1009.95 1009.85 1009.65 1009.38 1009.12 1008.93 1008.86 1008.96 1009.20 1009.56 1009.99 1010.43 1010.83 1011.16 1011.42 1011.63 1011.83 1012.07 1012.38 1012.80 1013.30 1013.86 1014.45 1015.02 1015.52 1015.93 1016.25 1016.48 1016.65 1016.78 1016.89 1017.00 1017.12 1017.24 1017.36 1017.46 1017.55 1017.63 1017.69
1009.02 1009.42 1009.74 1009.92 1009.97 1009.90 1009.74 1009.53 1009.34 1009.23 1009.23 1009.37 1009.65 1010.03 1010.46 1010.89 1011.28 1011.60 1011.84 1012.04 1012.22 1012.43 1012.72 1013.11 1013.60 1014.18 1014.79 1015.40 1015.96 1016.44 1016.82 1017.10 1017.30 1017.44 1017.55 1017.65 1017.76 1017.87 1017.99 1018.11 1018.22 1018.32 1018.39
1008.92 1009.32 1009.63 1009.83 1009.91 1009.91 1009.83 1009.73 1009.65 1009.63 1009.70 1009.89 1010.17 1010.54 1010.94 1011.34 1011.70 1012.00 1012.24 1012.43 1012.62 1012.85 1013.15 1013.55 1014.05 1014.64 1015.28 1015.93 1016.54 1017.07 1017.49 1017.81 1018.02 1018.16 1018.25 1018.33 1018.41 1018.50 1018.61 1018.74 1018.87 1018.98 1019.07
1008.82 1009.20 1009.49 1009.70 1009.84 1009.92 1009.96 1009.99 1010.03 1010.11 1010.25 1010.46 1010.73 1011.05 1011.39 1011.74 1012.06 1012.34 1012.59 1012.81 1013.04 1013.31 1013.65 1014.08 1014.61 1015.23 1015.90 1016.57 1017.21 1017.77 1018.22 1018.55 1018.76 1018.88 1018.95 1018.98 1019.03 1019.09 1019.18 1019.30 1019.44 1019.56 1019.65
1008.80 1009.13 1009.40 1009.62 1009.81 1009.99 1010.15 1010.31 1010.48 1010.66 1010.85 1011.05 1011.29 1011.54 1011.80 1012.08 1012.35 1012.62 1012.88 1013.15 1013.45 1013.78 1014.19 1014.67 1015.24 1015.88 1016.56 1017.25 1017.90 1018.47 1018.93 1019.26 1019.46 1019.56 1019.59 1019.59 1019.59 1019.62 1019.68 1019.78 1019.90 1020.01 1020.10
1008.90 1009.18 1009.41 1009.64 1009.88 1010.14 1010.42 1010.71 1010.98 1011.24 1011.46 1011.65 1011.82 1011.99 1012.16 1012.36 1012.59 1012.84 1013.13 1013.46 1013.82 1014.24 1014.71 1015.25 1015.85 1016.50 1017.19 1017.88 1018.53 1019.09 1019.55 1019.88 1020.08 1020.17 1020.17 1020.14 1020.10 1020.08 1020.10 1020.17 1020.26 1020.35 1020.42
1009.14 1009.36 1009.56 1009.78 1010.05 1010.38 1010.75 1011.14 1011.51 1011.82 1012.06 1012.22 1012.33 1012.40 1012.49 1012.61 1012.79 1013.03 1013.35 1013.73 1014.17 1014.65 1015.18 1015.76 1016.38 1017.03 1017.71 1018.38 1019.01 1019.57 1020.03 1020.37 1020.58 1020.67 1020.68 1020.63 1020.56 1020.51 1020.49 1020.51 1020.56 1020.62 1020.66
1009.48 1009.65 1009.81 1010.02 1010.30 1010.68 1011.13 1011.59 1012.02 1012.37 1012.62 1012.75 1012.79 1012.79 1012.80 1012.85 1012.99 1013.23 1013.57 1013.99 1014.48 1015.02 1015.58 1016.18 1016.79 1017.42 1018.06 1018.69 1019.31 1019.86 1020.33 1020.70 1020.94 1021.07 1021.10 1021.06 1020.99 1020.92 1020.87 1020.84 1020.84 1020.86 1020.86
1009.88 1010.02 1010.14 1010.33 1010.62 1011.01 1011.50 1012.01 1012.48 1012.86 1013.10 1013.21 1013.22 1013.16 1013.11 1013.11 1013.22 1013.46 1013.81 1014.26 1014.78 1015.34 1015.92 1016.49 1017.07 1017.65 1018.24 1018.83 1019.41 1019.96 1020.44 1020.85 1021.15 1021.34 1021.43 1021.44 1021.39 1021.32 1021.25 1021.18 1021.14 1021.10 1021.06
1010.27 1010.39 1010.49 1010.66 1010.93 1011.33 1011.82 1012.35 1012.85 1013.25 1013.50 1013.61 1013.59 1013.51 1013.43 1013.42 1013.52 1013.75 1014.11 1014.57 1015.10 1015.65 1016.20 1016.73 1017.25 1017.76 1018.28 1018.80 1019.34 1019.88 1020.38 1020.84 1021.21 1021.48 1021.65 1021.73 1021.73 1021.69 1021.61 1021.53 1021.45 1021.36 1021.28
1010.61 1010.73 1010.81 1010.95 1011.21 1011.59 1012.07 1012.60 1013.11 1013.52 1013.79 1013.91 1013.91 1013.84 1013.77 1013.77 1013.87 1014.11 1014.47 1014.93 1015.43 1015.95 1016.46 1016.93 1017.37 1017.79 1018.22 1018.68 1019.17 1019.68 1020.19 1020.68 1021.12 1021.48 1021.74 1021.90 1021.98 1021.98 1021.93 1021.84 1021.73 1021.61 1021.49
1010.87 1011.00 1011.08 1011.20 1011.42 1011.77 1012.23 1012.75 1013.25 1013.68 1013.98 1014.14 1014.18 1014.15 1014.12 1014.14 1014.27 1014.52 1014.88 1015.32 1015.80 1016.28 1016.72 1017.12 1017.47 1017.81 1018.15 1018.53 1018.95 1019.42 1019.92 1020.43 1020.91 1021.34 1021.68 1021.93 1022.09 1022.15 1022.14 1022.07 1021.96 1021.82 1021.66
1011.06 1011.21 1011.28 1011.38 1011.57 1011.88 1012.31 1012.81 1013.31 1013.75 1014.08 1014.29 1014.39 1014.43 1014.45 1014.53 1014.68 1014.94 1015.30 1015.73 1016.18 1016.61 1017.00 1017.33 1017.61 1017.87 1018.13 1018.42 1018.77 1019.18 1019.64 1020.13 1020.63 1021.09 1021.50 1021.82 1022.05 1022.18 1022.23 1022.20 1022.10 1021.95 1021.78
Thickness
5800 5802 5801 5800 5799 5797 5795 5793 5791 5789 5788 5786 5784 5783 5782 5781 5779 5777 5776 5774 5773 5771 5770 5768 5766 5765 5763 5762 5761 5759 5758 5756 5755 5754 5753 5751 5750 5749 5749 5748 5748 5746 5745
5806 5803 5801 5799 5797 5795 5793 5791 5789 5787 5786 5784 5782 5780 5779 5778 5776 5775 5774 5772 5770 5769 5767 5765 5764 5762 5761 5760 5758 5757 5755 5754 5753 5751 5750 5749 5748 5747 5747 5746 5745 5744 5743
5807 5803 5800 5798 5796 5794 5791 5789 5787 5785 5783 5781 5780 5778 5777 5775 5773 5772 5771 5769 5768 5766 5765 5763 5761 5760 5759 5757 5756 5755 5753 5752 5750 5749 5748 5746 5746 5745 5744 5744 5743 5742 5741
5807 5803 5800 5797 5795 5792 5789 5787 5785 5783 5781 5779 5777 5776 5774 5773 5771 5770 5768 5767 5765 5764 5762 5761 5759 5758 5757 5755 5754 5752 5751 5749 5748 5747 5745 5745 5744 5743 5742 5742 5741 5740 5740
5805 5802 5799 5796 5793 5791 5788 5786 5783 5781 5779 5777 5775 5773 5772 5770 5768 5767 5766 5764 5763 5762 5760 5758 5757 5756 5755 5753 5752 5751 5749 5748 5747 5745 5744 5743 5742 5741 5740 5740 5739 5738 5738
5804 5801 5798 5795 5792 5789 5787 5784 5782 5779 5777 5775 5773 5771 5769 5768 5766 5765 5763 5762 5760 5759 5758 5756 5755 5754 5753 5752 5750 5749 5748 5747 5746 5744 5743 5742 5741 5740 5739 5738 5737 5737 5736
5803 5800 5797 5794 5791 5788 5785 5783 5780 5777 5775 5773 5771 5769 5767 5766 5764 5763 5761 5760 5758 5757 5756 5754 5753 5752 5751 5750 5748 5747 5746 5746 5744 5743 5742 5741 5740 5739 5738 5737 5736 5735 5735
5803 5799 5795 5792 5789 5786 5783 5780 5778 5775 5773 5771 5769 5767 5765 5763 5762 5761 5759 5758 5757 5755 5754 5753 5751 5750 5749 5748 5747 5745 5745 5744 5742 5741 5740 5739 5738 5737 5736 5736 5735 5734 5733
5801 5797 5793 5789 5787 5784 5781 5778 5776 5773 5771 5769 5767 5765 5763 5761 5759 5758 5757 5755 5755 5754 5752 5751 5749 5748 5747 5746 5745 5744 5743 5741 5740 5738 5738 5737 5736 5735 5735 5734 5733 5732 5731
5798 5795 5791 5787 5784 5782 5779 5776 5773 5771 5768 5766 5764 5762 5760 5759 5757 5756 5755 5754 5753 5751 5750 5749 5748 5746 5745 5744 5743 5741 5741 5739 5737 5737 5736 5736 5734 5733 5733 5732 5731 5730 5730
5792 5790 5788 5784 5782 5780 5777 5774 5771 5768 5766 5763 5761 5759 5757 5756 5755 5753 5752 5752 5750 5749 5748 5747 5746 5745 5743 5741 5740 5739 5738 5737 5736 5734 5734 5734 5733 5731 5730 5730 5729 5729 5728
5785 5785 5784 5782 5779 5777 5775 5772 5769 5766 5763 5761 5759 5756 5754 5753 5752 5750 5750 5749 5748 5747 5746 5745 5743 5742 5741 5739 5738 5736 5736 5735 5734 5732 5732 5731 5730 5729 5729 5728 5728 5727 5726
5786 5784 5783 5780 5777 5775 5772 5769 5766 5764 5760 5758 5756 5754 5752 5750 5749 5747 5746 5746 5745 5744 5743 5742 5741 5739 5738 5737 5736 5735 5733 5732 5731 5730 5729 5729 5728 5727 5726 5726 5726 5725 5724
5784 5782 5781 5779 5775 5773 5771 5768 5764 5761 5758 5756 5754 5752 5750 5748 5746 5745 5744 5742 5742 5741 5740 5739 5738 5737 5736 5735 5734 5733 5731 5730 5728 5728 5727 5726 5726 5725 5724 5724 5723 5722 5721
5782 5780 5778 5776 5773 5771 5769 5766 5763 5760 5757 5754 5752 5750 5748 5746 5744 5742 5741 5739 5739 5738 5737 5736 5735 5734 5733 5732 5731 5730 5729 5727 5726 5725 5724 5724 5723 5722 5722 5721 5720 5719 5718
5780 5777 5776 5774 5771 5769 5766 5763 5761 5758 5756 5753 5750 5748 5746 5744 5742 5740 5737 5736 5735 5735 5734 5733 5732 5731 5730 5729 5728 5727 5726 5725 5723 5722 5722 5721 5720 5719 5719 5718 5717 5716 5715
5778 5774 5772 5771 5769 5766 5763 5761 5759 5756 5753 5750 5748 5746 5744 5742 5739 5737 5734 5733 5732 5731 5730 5729 5728 5727 5726 5725 5724 5724 5723 5722 5721 5720 5719 5719 5718 5717 5716 5715 5714 5713 5712
5776 5771 5769 5768 5764 5762 5760 5757 5755 5753 5750 5748 5746 5745 5743 5740 5738 5735 5732 5730 5729 5728 5727 5725 5723 5722 5722 5721 5720 5720 5720 5719 5719 5718 5717 5716 5715 5714 5713 5712 5711 5709 5709
5773 5769 5765 5763 5761 5758 5756 5754 5751 5749 5747 5745 5743 5742 5740 5738 5736 5733 5730 5727 5726 5725 5723 5722 5720 5719 5717 5717 5717 5717 5716 5716 5716 5716 5715 5714 5712 5711 5710 5709 5707 5706 5705
5769 5765 5762 5759 5756 5754 5751 5748 5746 5744 5743 5741 5739 5738 5736 5734 5732 5730 5727 5725 5723 5721 5719 5719 5716 5716 5715 5714 5714 5713 5712 5713 5713 5712 5712 5711 5709 5708 5707 5706 5705 5704 5702
5763 5759 5756 5753 5750 5748 5744 5741 5739 5737 5737 5736 5736 5734 5733 5731 5729 5727 5724 5722 5720 5718 5716 5715 5713 5711 5710 5710 5707 5704 5705 5708 5708 5709 5709 5708 5707 5706 5705 5703 5702 5701 5699
5757 5754 5751 5749 5746 5743 5741 5739 5737 5734 5733 5733 5732 5730 5729 5728 5726 5724 5721 5719 5717 5715 5713 5711 5710 5707 5706 5706 5702 5696 5693 5696 5701 5705 5705 5704 5704 5703 5701 5701 5699 5698 5696
5752 5750 5748 5745 5742 5739 5737 5734 5731 5728 5727 5726 5726 5725 5725 5724 5723 5721 5719 5717 5714 5713 5710 5708 5707 5705 5701 5701 5702 5696 5689 5687 5691 5697 5700 5701 5700 5699 5698 5697 5696 5694 5693
5749 5747 5744 5742 5739 5735 5733 5729 5725 5722 5720 5721 5722 5721 5721 5720 5719 5718 5716 5714 5712 5710 5707 5706 5705 5703 5700 5697 5697 5697 5696 5693 5688 5686 5691 5695 5696 5695 5694 5694 5693 5691 5690
5746 5742 5739 5737 5733 5730 5729 5726 5722 5719 5718 5717 5718 5717 5716 5715 5715 5714 5713 5710 5708 5706 5705 5703 5701 5700 5698 5695 5693 5692 5691 5690 5689 5684 5682 5685 5689 5691 5691 5691 5690 5688 5688
5739 5736 5733 5730 5728 5726 5724 5722 5720 5716 5714 5712 5711 5711 5710 5710 5710 5710 5709 5707 5705 5703 5701 5700 5698 5696 5695 5694 5692 5690 5688 5686 5684 5682 5679 5678 5679 5684 5687 5688 5687 5686 5685